Weather History for Clinton, IA

Change the Weather History Date:

Wednesday, March 14, 2012

  Actual Average Record
Temperature  
Mean Temperature 64 °F -  
Max Temperature 78 °F 46 °F 78 °F (2012)
Min Temperature 50 °F 28 °F -2 °F (1960)
Degree Days  
Heating Degree Days 1    
Growing Degree Days 14 (Base 50)    
Moisture  
Dew Point 52 °F    
Average Humidity 66    
Maximum Humidity 82    
Minimum Humidity 47    
Precipitation  
Precipitation 0.00 in - - ()
Sea Level Pressure  
Sea Level Pressure 29.95 in    
Wind  
Wind Speed 12 mph (South)    
Max Wind Speed 22 mph    
Max Gust Speed 29 mph    
Visibility 10 miles    
Events      
Averages and records for this station are not official NWS values.
T = Trace of Precipitation, MM = Missing Value Source: NWS Daily Summary

Daily Weather History Graph

Daily Weather History Graph

Search for Another Location

Airport:

Trip Planner

Search our weather history database for the weather conditions in past years. The results will help you decide how hot, cold, wet, or windy it might be!

Date:

Astronomy

Mar. 14, 2012 Rise Set
Actual Time 7:13 AM CDT 7:07 PM CDT
Civil Twilight 6:46 AM CDT 7:35 PM CDT
Nautical Twilight 6:13 AM CDT 8:07 PM CDT
Astronomical Twilight 5:41 AM CDT 8:40 PM CDT
Moon 1:48 AM CDT (3/14) 11:18 AM CDT (3/14)
Length of Visible Light 12h 48m
Length of Day
11h 53m
Waning Gibbous, 54% of the Moon is Illuminated
Mar 14
Waning Gibbous
Mar 14
Last Quarter
Mar 22
New
Mar 30
First Quarter
Apr 6
Full

Hourly Weather History & Observations

Time (CDT) Temp. Dew Point Humidity Pressure Visibility Wind Dir Wind Speed Gust Speed Precip Events Conditions
12:15 AM 50.0 °F 41.0 °F 71% 30.00 in 10.0 mi SE 8.1 mph - N/A   Clear
12:35 AM 53.6 °F 44.6 °F 72% 29.99 in 10.0 mi SE 11.5 mph - N/A   Clear
12:55 AM 55.4 °F 42.8 °F 63% 29.99 in 10.0 mi SE 11.5 mph - N/A   Clear
1:15 AM 53.6 °F 42.8 °F 67% 29.99 in 10.0 mi SSE 9.2 mph - N/A   Clear
1:35 AM 51.8 °F 42.8 °F 71% 29.98 in 10.0 mi SE 10.4 mph - N/A   Clear
1:55 AM 51.8 °F 42.8 °F 71% 29.98 in 10.0 mi SSE 10.4 mph - N/A   Clear
2:15 AM 51.8 °F 42.8 °F 71% 29.98 in 10.0 mi SSE 10.4 mph - N/A   Clear
2:35 AM 51.8 °F 42.8 °F 71% 29.98 in 10.0 mi SE 10.4 mph - N/A   Clear
2:55 AM 51.8 °F 42.8 °F 71% 29.97 in 10.0 mi SSE 10.4 mph - N/A   Clear
3:15 AM 51.8 °F 44.6 °F 76% 29.96 in 10.0 mi SSE 10.4 mph - N/A   Clear
3:35 AM 51.8 °F 44.6 °F 76% 29.96 in 10.0 mi SSE 10.4 mph - N/A   Clear
3:55 AM 51.8 °F 44.6 °F 76% 29.95 in 10.0 mi SSE 8.1 mph - N/A   Clear
4:15 AM 53.6 °F 44.6 °F 72% 29.95 in 10.0 mi SSE 8.1 mph - N/A   Clear
4:35 AM 53.6 °F 46.4 °F 77% 29.96 in 10.0 mi South 10.4 mph - N/A   Clear
4:55 AM 53.6 °F 46.4 °F 77% 29.96 in 10.0 mi South 9.2 mph - N/A   Clear
5:15 AM 53.6 °F 46.4 °F 77% 29.96 in 10.0 mi South 6.9 mph - N/A   Clear
5:35 AM 53.6 °F 46.4 °F 77% 29.97 in 10.0 mi South 9.2 mph - N/A   Clear
5:55 AM 51.8 °F 44.6 °F 76% 29.97 in 10.0 mi SSE 5.8 mph - N/A   Clear
6:15 AM 51.8 °F 46.4 °F 82% 29.97 in 10.0 mi SSE 8.1 mph - N/A   Clear
6:35 AM 53.6 °F 46.4 °F 77% 29.97 in 10.0 mi SSE 10.4 mph - N/A   Clear
6:55 AM 53.6 °F 46.4 °F 77% 29.97 in 10.0 mi SSE 8.1 mph - N/A   Clear
7:15 AM 51.8 °F 46.4 °F 82% 29.97 in 10.0 mi SSE 9.2 mph - N/A   Clear
7:35 AM 51.8 °F 46.4 °F 82% 29.97 in 10.0 mi SSE 9.2 mph - N/A   Clear
7:55 AM 53.6 °F 46.4 °F 77% 29.97 in 10.0 mi SSE 10.4 mph - N/A   Clear
8:15 AM 53.6 °F 48.2 °F 82% 29.98 in 5.0 mi SSE 9.2 mph - N/A   Clear
8:35 AM 55.4 °F 48.2 °F 77% 29.98 in 10.0 mi South 9.2 mph - N/A   Clear
8:55 AM 57.2 °F 50.0 °F 77% 29.99 in 10.0 mi South 11.5 mph - N/A   Clear
9:15 AM 60.8 °F 51.8 °F 72% 29.99 in 10.0 mi South 13.8 mph - N/A   Clear
9:35 AM 62.6 °F 51.8 °F 68% 29.98 in 10.0 mi SSW 13.8 mph - N/A   Clear
9:55 AM 64.4 °F 53.6 °F 68% 29.98 in 10.0 mi SSW 13.8 mph - N/A   Clear
10:15 AM 66.2 °F 53.6 °F 64% 29.98 in 10.0 mi SSW 13.8 mph 17.3 mph N/A   Clear
10:35 AM 68.0 °F 55.4 °F 64% 29.97 in 10.0 mi SSW 15.0 mph - N/A   Clear
10:55 AM 69.8 °F 55.4 °F 60% 29.96 in 10.0 mi SSW 17.3 mph 20.7 mph N/A   Clear
11:15 AM 71.6 °F 57.2 °F 60% 29.96 in 10.0 mi SSW 16.1 mph 21.9 mph N/A   Clear
11:35 AM 71.6 °F 57.2 °F 60% 29.96 in 10.0 mi SSW 17.3 mph - N/A   Clear
11:55 AM 73.4 °F 57.2 °F 57% 29.95 in 10.0 mi SSW 16.1 mph 23.0 mph N/A   Clear
12:15 PM 73.4 °F 57.2 °F 57% 29.95 in 10.0 mi SSW 20.7 mph - N/A   Clear
12:35 PM 75.2 °F 57.2 °F 53% 29.95 in 10.0 mi SW 17.3 mph 24.2 mph N/A   Clear
12:55 PM 75.2 °F 57.2 °F 53% 29.94 in 10.0 mi SW 19.6 mph 25.3 mph N/A   Partly Cloudy
1:15 PM 75.2 °F 57.2 °F 53% 29.94 in 10.0 mi SW 19.6 mph 24.2 mph N/A   Clear
1:35 PM 77.0 °F 57.2 °F 50% 29.93 in 10.0 mi WSW 17.3 mph 26.5 mph N/A   Clear
1:55 PM 77.0 °F 57.2 °F 50% 29.92 in 10.0 mi SW 19.6 mph 24.2 mph N/A   Partly Cloudy
2:15 PM 78.8 °F 59.0 °F 51% 29.91 in 10.0 mi SW 19.6 mph 26.5 mph N/A   Partly Cloudy
2:35 PM 77.0 °F 59.0 °F 54% 29.91 in 10.0 mi SSW 18.4 mph - N/A   Scattered Clouds
2:55 PM 78.8 °F 57.2 °F 47% 29.90 in 10.0 mi SSW 19.6 mph 24.2 mph N/A   Mostly Cloudy
3:15 PM 78.8 °F 57.2 °F 47% 29.90 in 10.0 mi SSW 13.8 mph 19.6 mph N/A   Scattered Clouds
3:35 PM 77.0 °F 57.2 °F 50% 29.89 in 10.0 mi SSW 16.1 mph 23.0 mph N/A   Scattered Clouds
3:55 PM 77.0 °F 57.2 °F 50% 29.89 in 10.0 mi SSW 20.7 mph 25.3 mph N/A   Scattered Clouds
4:15 PM 75.2 °F 57.2 °F 53% 29.90 in 10.0 mi SW 12.7 mph 24.2 mph N/A   Mostly Cloudy
4:35 PM 75.2 °F 57.2 °F 53% 29.90 in 10.0 mi SSW 16.1 mph 28.8 mph N/A   Overcast
4:55 PM 77.0 °F 59.0 °F 54% 29.90 in 10.0 mi SSW 17.3 mph 21.9 mph N/A   Overcast
5:15 PM 75.2 °F 57.2 °F 53% 29.89 in 10.0 mi SW 20.7 mph - N/A   Scattered Clouds
5:35 PM 73.4 °F 57.2 °F 57% 29.89 in 10.0 mi SW 21.9 mph - N/A   Clear
5:55 PM 73.4 °F 57.2 °F 57% 29.89 in 10.0 mi SW 19.6 mph - N/A   Scattered Clouds
6:15 PM 73.4 °F 57.2 °F 57% 29.90 in 10.0 mi SSW 15.0 mph - N/A   Partly Cloudy
6:35 PM 71.6 °F 57.2 °F 60% 29.90 in 10.0 mi SSW 12.7 mph - N/A   Partly Cloudy
6:55 PM 69.8 °F 57.2 °F 64% 29.90 in 10.0 mi SSW 10.4 mph - N/A   Partly Cloudy
7:35 PM 66.2 °F 57.2 °F 73% 29.91 in 10.0 mi SSW 9.2 mph - N/A   Partly Cloudy
7:55 PM 66.2 °F 57.2 °F 73% 29.91 in 10.0 mi South 9.2 mph - N/A   Scattered Clouds
8:15 PM 64.4 °F 55.4 °F 73% 29.92 in 10.0 mi South 8.1 mph - N/A   Clear
8:35 PM 66.2 °F 57.2 °F 73% 29.92 in 10.0 mi South 6.9 mph - N/A   Scattered Clouds
8:55 PM 66.2 °F 57.2 °F 73% 29.93 in 10.0 mi South 5.8 mph - N/A   Overcast
9:15 PM 66.2 °F 57.2 °F 73% 29.93 in 10.0 mi South 8.1 mph - N/A   Overcast
9:35 PM 64.4 °F 57.2 °F 77% 29.93 in 10.0 mi South 9.2 mph - N/A   Mostly Cloudy
9:55 PM 64.4 °F 57.2 °F 77% 29.93 in 10.0 mi South 9.2 mph - N/A   Scattered Clouds
10:15 PM 64.4 °F 57.2 °F 77% 29.93 in 10.0 mi South 9.2 mph - N/A   Partly Cloudy
10:35 PM 64.4 °F 57.2 °F 77% 29.93 in 10.0 mi South 10.4 mph - N/A   Clear
10:55 PM 62.6 °F 55.4 °F 77% 29.93 in 10.0 mi South 10.4 mph - N/A   Clear
11:15 PM 64.4 °F 55.4 °F 73% 29.93 in 10.0 mi SSW 10.4 mph - N/A   Scattered Clouds
11:35 PM 66.2 °F 57.2 °F 73% 29.93 in 10.0 mi SSW 11.5 mph - N/A   Overcast
11:55 PM 66.2 °F 57.2 °F 73% 29.93 in 10.0 mi SW 11.5 mph - N/A   Mostly Cloudy